Time,TemperatureF,DewpointF,PressureIn,WindDirection,WindDirectionDegrees,WindSpeedMPH,WindSpeedGustMPH,Humidity,HourlyPrecipIn,Conditions,Clouds,dailyrainin,SoftwareType,DateUTC
2013-02-20 00:05:00,42.8,27.0,30.17,WNW,298,4.0,6.0,54,0.00,,,0.00,weatherlink.com 1.10,2013-02-20 06:05:00,
2013-02-20 00:20:00,42.6,27.0,30.17,West,273,1.0,6.0,54,0.00,,,0.00,weatherlink.com 1.10,2013-02-20 06:20:00,
2013-02-20 00:35:00,42.3,27.0,30.17,WNW,291,1.0,7.0,54,0.00,,,0.00,weatherlink.com 1.10,2013-02-20 06:35:00,
2013-02-20 00:50:00,41.8,27.0,30.17,WNW,290,1.0,2.0,55,0.00,,,0.00,weatherlink.com 1.10,2013-02-20 06:50:00,
2013-02-20 01:05:00,41.2,26.0,30.17,NW,318,2.0,4.0,56,0.00,,,0.00,weatherlink.com 1.10,2013-02-20 07:05:00,
2013-02-20 01:20:00,41.1,26.0,30.16,WNW,293,2.0,6.0,56,0.00,,,0.00,weatherlink.com 1.10,2013-02-20 07:20:00,
2013-02-20 01:35:00,41.1,26.0,30.16,West,264,4.0,7.0,55,0.00,,,0.00,weatherlink.com 1.10,2013-02-20 07:35:00,
2013-02-20 01:50:00,40.7,25.0,30.16,WSW,242,2.0,5.0,54,0.00,,,0.00,weatherlink.com 1.10,2013-02-20 07:50:00,
2013-02-20 02:05:00,40.4,25.0,30.17,WNW,293,2.0,4.0,55,0.00,,,0.00,weatherlink.com 1.10,2013-02-20 08:05:00,
2013-02-20 02:20:00,39.8,25.0,30.17,WSW,256,1.0,3.0,56,0.00,,,0.00,weatherlink.com 1.10,2013-02-20 08:20:00,
2013-02-20 02:35:00,39.3,26.0,30.19,West,278,0.0,2.0,60,0.00,,,0.00,weatherlink.com 1.10,2013-02-20 08:35:00,
2013-02-20 02:50:00,38.0,25.0,30.19,WNW,285,1.0,2.0,61,0.00,,,0.00,weatherlink.com 1.10,2013-02-20 08:50:00,
2013-02-20 03:06:00,37.1,25.0,30.18,WNW,285,1.0,1.0,62,0.00,,,0.00,weatherlink.com 1.10,2013-02-20 09:06:00,
2013-02-20 03:21:00,36.6,26.0,30.19,NW,321,0.0,2.0,65,0.00,,,0.00,weatherlink.com 1.10,2013-02-20 09:21:00,
2013-02-20 03:36:00,36.7,26.0,30.18,WNW,295,1.0,2.0,65,0.00,,,0.00,weatherlink.com 1.10,2013-02-20 09:36:00,
2013-02-20 03:51:00,36.4,26.0,30.19,WNW,294,1.0,1.0,65,0.00,,,0.00,weatherlink.com 1.10,2013-02-20 09:51:00,
2013-02-20 04:06:00,35.8,26.0,30.19,WNW,298,0.0,2.0,67,0.00,,,0.00,weatherlink.com 1.10,2013-02-20 10:06:00,
2013-02-20 04:21:00,34.9,26.0,30.20,WNW,291,1.0,1.0,70,0.00,,,0.00,weatherlink.com 1.10,2013-02-20 10:21:00,
2013-02-20 04:36:00,34.5,26.0,30.20,WNW,290,0.0,1.0,71,0.00,,,0.00,weatherlink.com 1.10,2013-02-20 10:36:00,
2013-02-20 04:51:00,34.5,26.0,30.20,WNW,293,0.0,1.0,71,0.00,,,0.00,weatherlink.com 1.10,2013-02-20 10:51:00,
2013-02-20 05:06:00,33.3,27.0,30.19,WNW,290,0.0,0.0,77,0.00,,,0.00,weatherlink.com 1.10,2013-02-20 11:06:00,
2013-02-20 05:21:00,32.2,26.0,30.20,WNW,288,0.0,0.0,79,0.00,,,0.00,weatherlink.com 1.10,2013-02-20 11:21:00,
2013-02-20 05:36:00,31.0,27.0,30.20,WNW,288,0.0,0.0,84,0.00,,,0.00,weatherlink.com 1.10,2013-02-20 11:36:00,
2013-02-20 05:51:00,30.4,27.0,30.19,WNW,288,0.0,0.0,87,0.00,,,0.00,weatherlink.com 1.10,2013-02-20 11:51:00,
2013-02-20 06:06:00,29.8,26.0,30.19,WNW,288,0.0,0.0,86,0.00,,,0.00,weatherlink.com 1.10,2013-02-20 12:06:00,
2013-02-20 06:21:00,30.9,27.0,30.19,WNW,288,0.0,0.0,86,0.00,,,0.00,weatherlink.com 1.10,2013-02-20 12:21:00,
2013-02-20 06:36:00,32.4,28.0,30.20,WSW,249,0.0,0.0,83,0.00,,,0.00,weatherlink.com 1.10,2013-02-20 12:36:00,
2013-02-20 06:51:00,35.5,28.0,30.19,WNW,288,1.0,1.0,73,0.00,,,0.00,weatherlink.com 1.10,2013-02-20 12:51:00,
2013-02-20 07:06:00,36.2,28.0,30.19,SE,139,1.0,2.0,71,0.00,,,0.00,weatherlink.com 1.10,2013-02-20 13:06:00,
2013-02-20 07:21:00,38.4,28.0,30.19,NE,43,0.0,4.0,66,0.00,,,0.00,weatherlink.com 1.10,2013-02-20 13:21:00,
2013-02-20 07:36:00,40.8,27.0,30.18,West,269,1.0,3.0,58,0.00,,,0.00,weatherlink.com 1.10,2013-02-20 13:36:00,
2013-02-20 07:51:00,42.0,28.0,30.19,ESE,113,1.0,5.0,57,0.00,,,0.00,weatherlink.com 1.10,2013-02-20 13:51:00,
2013-02-20 08:06:00,43.0,26.0,30.18,East,99,4.0,8.0,52,0.00,,,0.00,weatherlink.com 1.10,2013-02-20 14:06:00,
2013-02-20 08:21:00,44.0,27.0,30.20,ESE,103,1.0,8.0,51,0.00,,,0.00,weatherlink.com 1.10,2013-02-20 14:21:00,
2013-02-20 08:36:00,45.6,25.0,30.21,East,96,1.0,7.0,45,0.00,,,0.00,weatherlink.com 1.10,2013-02-20 14:36:00,
2013-02-20 08:51:00,46.1,25.0,30.23,WSW,240,3.0,12.0,43,0.00,,,0.00,weatherlink.com 1.10,2013-02-20 14:51:00,
2013-02-20 09:06:00,46.5,25.0,30.21,East,83,2.0,7.0,43,0.00,,,0.00,weatherlink.com 1.10,2013-02-20 15:06:00,
2013-02-20 09:21:00,47.3,24.0,30.22,ESE,115,2.0,8.0,40,0.00,,,0.00,weatherlink.com 1.10,2013-02-20 15:21:00,
2013-02-20 09:36:00,47.9,24.0,30.22,ESE,110,2.0,6.0,40,0.00,,,0.00,weatherlink.com 1.10,2013-02-20 15:36:00,
2013-02-20 09:51:00,48.6,23.0,30.22,WNW,288,3.0,5.0,37,0.00,,,0.00,weatherlink.com 1.10,2013-02-20 15:51:00,
2013-02-20 10:07:00,49.9,26.0,30.22,East,92,1.0,5.0,40,0.00,,,0.00,weatherlink.com 1.10,2013-02-20 16:07:00,
2013-02-20 10:22:00,50.9,24.0,30.23,SE,138,2.0,6.0,35,0.00,,,0.00,weatherlink.com 1.10,2013-02-20 16:22:00,
2013-02-20 10:37:00,52.2,24.0,30.23,WSW,245,3.0,3.0,33,0.00,,,0.00,weatherlink.com 1.10,2013-02-20 16:37:00,
2013-02-20 10:52:00,52.4,25.0,30.22,ESE,117,0.0,4.0,34,0.00,,,0.00,weatherlink.com 1.10,2013-02-20 16:52:00,
2013-02-20 11:07:00,53.7,24.0,30.22,SE,144,1.0,7.0,31,0.00,,,0.00,weatherlink.com 1.10,2013-02-20 17:07:00,
2013-02-20 11:22:00,55.0,23.0,30.21,East,93,0.0,3.0,29,0.00,,,0.00,weatherlink.com 1.10,2013-02-20 17:22:00,
2013-02-20 11:37:00,54.9,23.0,30.20,NW,309,0.0,5.0,29,0.00,,,0.00,weatherlink.com 1.10,2013-02-20 17:37:00,
2013-02-20 11:52:00,56.7,25.0,30.19,WNW,294,4.0,6.0,30,0.00,,,0.00,weatherlink.com 1.10,2013-02-20 17:52:00,
2013-02-20 12:07:00,57.8,25.0,30.18,ENE,71,6.0,8.0,28,0.00,,,0.00,weatherlink.com 1.10,2013-02-20 18:07:00,
2013-02-20 12:22:00,57.5,25.0,30.17,ESE,119,3.0,6.0,29,0.00,,,0.00,weatherlink.com 1.10,2013-02-20 18:22:00,
2013-02-20 12:37:00,56.7,25.0,30.15,West,280,0.0,5.0,29,0.00,,,0.00,weatherlink.com 1.10,2013-02-20 18:37:00,
2013-02-20 12:52:00,56.8,25.0,30.16,SW,221,3.0,4.0,29,0.00,,,0.00,weatherlink.com 1.10,2013-02-20 18:52:00,
2013-02-20 13:07:00,57.3,24.0,30.16,West,261,5.0,7.0,28,0.00,,,0.00,weatherlink.com 1.10,2013-02-20 19:07:00,
2013-02-20 13:22:00,59.2,27.0,30.13,WSW,248,0.0,3.0,29,0.00,,,0.00,weatherlink.com 1.10,2013-02-20 19:22:00,
2013-02-20 13:37:00,58.5,26.0,30.13,West,264,1.0,5.0,29,0.00,,,0.00,weatherlink.com 1.10,2013-02-20 19:37:00,
2013-02-20 13:52:00,60.0,26.0,30.13,WNW,301,2.0,5.0,27,0.00,,,0.00,weatherlink.com 1.10,2013-02-20 19:52:00,
2013-02-20 14:07:00,59.7,23.0,30.13,NW,307,2.0,7.0,24,0.00,,,0.00,weatherlink.com 1.10,2013-02-20 20:07:00,
2013-02-20 14:22:00,59.5,25.0,30.12,West,267,1.0,7.0,27,0.00,,,0.00,weatherlink.com 1.10,2013-02-20 20:22:00,
2013-02-20 14:37:00,58.7,26.0,30.11,West,275,3.0,6.0,29,0.00,,,0.00,weatherlink.com 1.10,2013-02-20 20:37:00,
2013-02-20 14:52:00,57.8,26.0,30.12,West,274,3.0,5.0,30,0.00,,,0.00,weatherlink.com 1.10,2013-02-20 20:52:00,
2013-02-20 15:07:00,56.8,26.0,30.07,ESE,107,2.0,3.0,31,0.00,,,0.00,weatherlink.com 1.10,2013-02-20 21:07:00,
2013-02-20 15:22:00,56.9,26.0,30.10,ENE,67,0.0,7.0,30,0.00,,,0.00,weatherlink.com 1.10,2013-02-20 21:22:00,
2013-02-20 15:37:00,58.2,27.0,30.12,East,100,1.0,4.0,30,0.00,,,0.00,weatherlink.com 1.10,2013-02-20 21:37:00,
2013-02-20 15:52:00,57.4,26.0,30.12,NW,316,2.0,4.0,30,0.00,,,0.00,weatherlink.com 1.10,2013-02-20 21:52:00,
2013-02-20 16:07:00,58.7,26.0,30.11,NW,312,2.0,2.0,29,0.00,,,0.00,weatherlink.com 1.10,2013-02-20 22:07:00,
2013-02-20 16:22:00,57.7,27.0,30.11,West,281,1.0,4.0,31,0.00,,,0.00,weatherlink.com 1.10,2013-02-20 22:22:00,
2013-02-20 16:37:00,55.5,27.0,30.12,West,274,0.0,4.0,33,0.00,,,0.00,weatherlink.com 1.10,2013-02-20 22:37:00,
2013-02-20 16:52:00,54.5,28.0,30.11,WNW,288,0.0,2.0,37,0.00,,,0.00,weatherlink.com 1.10,2013-02-20 22:52:00,
2013-02-20 17:07:00,54.0,29.0,30.11,NW,314,2.0,3.0,38,0.00,,,0.00,weatherlink.com 1.10,2013-02-20 23:07:00,
2013-02-20 17:22:00,53.1,29.0,30.11,NW,316,0.0,3.0,40,0.00,,,0.00,weatherlink.com 1.10,2013-02-20 23:22:00,
2013-02-20 17:37:00,51.6,29.0,30.11,WSW,246,0.0,0.0,42,0.00,,,0.00,weatherlink.com 1.10,2013-02-20 23:37:00,
2013-02-20 17:52:00,50.2,30.0,30.12,West,276,0.0,1.0,46,0.00,,,0.00,weatherlink.com 1.10,2013-02-20 23:52:00,
2013-02-20 18:07:00,49.3,32.0,30.12,West,275,0.0,0.0,51,0.00,,,0.00,weatherlink.com 1.10,2013-02-21 00:07:00,
2013-02-20 18:22:00,47.8,31.0,30.12,West,275,0.0,0.0,52,0.00,,,0.00,weatherlink.com 1.10,2013-02-21 00:22:00,
2013-02-20 18:37:00,46.6,31.0,30.12,West,275,0.0,0.0,56,0.00,,,0.00,weatherlink.com 1.10,2013-02-21 00:37:00,
2013-02-20 18:52:00,45.4,32.0,30.11,West,276,0.0,0.0,61,0.00,,,0.00,weatherlink.com 1.10,2013-02-21 00:52:00,
2013-02-20 19:07:00,44.3,33.0,30.11,West,276,0.0,0.0,64,0.00,,,0.00,weatherlink.com 1.10,2013-02-21 01:07:00,
2013-02-20 19:22:00,43.7,31.0,30.12,West,276,0.0,0.0,62,0.00,,,0.00,weatherlink.com 1.10,2013-02-21 01:22:00,
2013-02-20 19:37:00,42.8,29.0,30.12,West,276,0.0,0.0,59,0.00,,,0.00,weatherlink.com 1.10,2013-02-21 01:37:00,
2013-02-20 19:52:00,42.2,29.0,30.12,West,276,0.0,0.0,59,0.00,,,0.00,weatherlink.com 1.10,2013-02-21 01:52:00,
2013-02-20 20:07:00,42.0,28.0,30.12,West,276,0.0,0.0,59,0.00,,,0.00,weatherlink.com 1.10,2013-02-21 02:07:00,
2013-02-20 20:22:00,41.8,29.0,30.12,West,275,0.0,0.0,62,0.00,,,0.00,weatherlink.com 1.10,2013-02-21 02:22:00,
2013-02-20 20:37:00,41.5,28.0,30.13,West,275,0.0,0.0,58,0.00,,,0.00,weatherlink.com 1.10,2013-02-21 02:37:00,
2013-02-20 20:52:00,41.1,28.0,30.13,West,275,0.0,0.0,61,0.00,,,0.00,weatherlink.com 1.10,2013-02-21 02:52:00,
2013-02-20 21:07:00,40.9,27.0,30.13,West,276,0.0,0.0,59,0.00,,,0.00,weatherlink.com 1.10,2013-02-21 03:07:00,
2013-02-20 21:22:00,40.3,30.0,30.13,West,275,0.0,0.0,66,0.00,,,0.00,weatherlink.com 1.10,2013-02-21 03:22:00,
2013-02-20 21:37:00,40.1,28.0,30.12,West,276,0.0,0.0,62,0.00,,,0.00,weatherlink.com 1.10,2013-02-21 03:37:00,
2013-02-20 21:53:00,39.7,26.0,30.11,West,275,0.0,0.0,59,0.00,,,0.00,weatherlink.com 1.10,2013-02-21 03:53:00,
2013-02-20 22:07:00,40.0,28.0,30.11,East,90,0.0,1.0,63,0.00,,,0.00,weatherlink.com 1.10,2013-02-21 04:07:00,
2013-02-20 22:22:00,40.7,27.0,30.10,East,92,0.0,1.0,59,0.00,,,0.00,weatherlink.com 1.10,2013-02-21 04:22:00,
2013-02-20 22:38:00,40.3,28.0,30.09,WNW,288,1.0,1.0,61,0.00,,,0.00,weatherlink.com 1.10,2013-02-21 04:38:00,
2013-02-20 22:53:00,39.3,28.0,30.10,WNW,288,0.0,1.0,65,0.00,,,0.00,weatherlink.com 1.10,2013-02-21 04:53:00,
2013-02-20 23:08:00,39.2,27.0,30.11,WNW,288,0.0,0.0,61,0.00,,,0.00,weatherlink.com 1.10,2013-02-21 05:08:00,
2013-02-20 23:23:00,39.0,28.0,30.10,WNW,288,0.0,0.0,64,0.00,,,0.00,weatherlink.com 1.10,2013-02-21 05:23:00,
2013-02-20 23:38:00,38.1,27.0,30.10,WNW,288,0.0,0.0,65,0.00,,,0.00,weatherlink.com 1.10,2013-02-21 05:38:00,
2013-02-20 23:53:00,37.7,28.0,30.10,WNW,288,0.0,0.0,68,0.00,,,0.00,weatherlink.com 1.10,2013-02-21 05:53:00,